Theta_e
314 315 319 320 319 319 319 320 319 318 318 315 314 316 314 315 316 316 316 315 317 318 316 315 314 315 317 319 321 321 320 321 322 321 323 323 319 319 321 323 328 332 335 337 335 334 335 336 336 336 336 333 331 331 332 332 329 327 326 325 324 324 325 326 326 325 324 324 326 327 326 325 323 320 319 320 321 323 323 321 317 313 309 307 305 305 305 305 306 305 306 307 310 317 324 324 316
314 316 320 320 319 322 321 320 319 316 315 313 314 316 314 314 316 317 316 316 320 318 316 316 315 316 317 319 320 321 322 323 323 324 323 319 319 321 321 322 325 330 334 336 335 333 336 337 336 336 335 334 332 332 332 332 328 326 325 324 323 322 322 323 323 323 323 325 326 326 325 323 320 320 321 322 324 325 324 323 320 316 311 308 306 305 305 305 306 306 310 314 317 323 327 322 314
315 318 320 321 321 322 321 320 317 314 314 312 313 316 314 315 316 316 317 319 320 317 317 317 318 318 318 320 319 320 321 322 322 322 320 318 325 323 320 322 323 329 332 336 336 335 337 336 336 335 334 334 333 332 332 331 328 326 325 325 323 323 322 321 321 321 323 326 326 325 322 320 320 323 325 325 326 327 325 324 321 318 313 310 307 305 305 305 305 308 315 321 324 324 323 318 311
317 320 321 322 322 322 322 321 318 315 313 312 313 315 315 316 316 316 318 319 318 316 316 317 319 319 319 320 318 319 320 321 320 320 320 319 324 320 318 321 322 329 333 337 337 336 338 336 336 335 335 335 334 334 332 331 329 327 325 325 323 322 321 320 320 320 323 327 327 324 321 320 323 325 326 327 327 328 326 324 322 319 315 311 308 305 305 305 307 313 319 321 320 317 314 310 308
319 320 321 323 324 321 322 319 318 316 314 314 314 315 316 316 316 317 317 316 316 315 315 317 320 319 319 319 318 321 319 320 318 317 319 317 317 316 317 319 322 330 334 337 337 337 338 336 337 336 336 336 335 335 332 330 329 327 325 324 323 322 321 321 321 320 323 328 328 324 323 323 324 325 327 328 328 329 327 325 323 320 316 312 308 306 304 305 310 316 320 317 314 311 308 305 305
320 321 321 322 321 320 320 318 317 317 315 316 315 315 316 316 317 318 316 315 315 315 315 316 319 319 321 320 319 322 319 319 319 316 317 316 316 316 316 318 324 330 334 337 337 338 338 337 337 336 336 337 336 335 333 331 329 327 325 325 322 321 321 321 321 320 323 328 330 326 324 325 325 326 328 329 329 329 328 326 324 321 316 313 310 306 304 305 308 312 314 313 310 307 305 304 305
320 321 320 321 320 319 320 317 316 317 315 314 315 315 316 316 316 317 316 315 314 314 315 315 317 319 321 320 319 320 318 318 318 317 316 316 316 316 316 318 326 331 334 337 336 338 339 337 337 337 337 337 336 335 333 331 330 327 326 325 322 320 320 320 320 321 323 327 329 327 326 327 327 328 329 329 330 330 329 327 324 321 317 314 311 307 305 304 305 305 305 306 305 304 304 304 305
320 320 320 322 321 320 320 317 317 317 315 312 313 314 315 316 314 316 317 315 315 315 316 315 317 318 318 319 321 320 318 317 316 316 315 315 316 316 316 319 328 334 334 336 336 337 338 338 338 337 337 337 337 336 334 332 330 328 327 326 323 321 320 321 320 320 323 325 328 329 329 329 327 328 330 330 330 330 330 328 325 321 317 315 312 309 306 304 304 304 304 304 304 304 304 304 304
319 320 320 322 321 320 319 317 317 316 314 312 313 313 313 314 313 316 316 315 315 315 317 317 317 316 317 319 321 319 317 316 316 315 315 315 316 316 317 320 331 336 335 335 336 337 337 337 337 337 337 337 337 336 335 332 330 329 328 326 323 322 321 321 320 320 323 324 326 328 329 330 329 328 330 330 330 330 330 329 325 321 318 315 313 311 308 306 306 305 306 305 305 305 304 304 304
319 319 321 323 320 319 317 317 317 316 314 313 313 312 313 313 312 314 316 315 314 315 317 317 316 315 317 320 320 318 317 316 315 315 315 315 315 316 317 319 329 333 333 334 335 336 337 337 338 337 337 337 337 337 336 334 331 330 328 326 324 323 322 321 320 321 323 324 325 326 326 329 330 329 330 329 329 329 329 329 326 322 318 316 315 313 311 310 310 311 311 310 310 310 310 309 308
319 319 320 321 318 317 316 317 317 316 314 314 314 313 313 312 312 314 314 315 314 316 317 316 316 316 317 319 319 318 316 316 315 314 314 315 315 316 316 318 324 329 331 333 335 336 336 336 338 338 337 337 337 337 336 335 332 331 329 328 325 324 323 322 321 324 324 324 324 325 325 328 330 330 330 329 329 328 327 328 326 322 319 318 317 317 316 316 316 317 317 317 317 317 317 317 316
320 321 321 320 318 317 318 317 317 316 315 314 314 313 313 312 313 314 314 315 314 316 317 316 316 316 318 318 318 316 316 316 315 314 315 315 315 316 317 316 320 325 328 332 333 335 335 335 336 337 337 336 336 337 336 335 334 332 332 329 327 324 324 322 322 324 324 324 324 323 324 327 329 330 330 329 329 328 326 327 326 323 320 320 320 319 320 320 320 320 320 321 321 321 321 321 320
320 322 321 319 318 319 319 318 317 317 315 315 314 313 312 312 314 315 315 315 315 316 316 316 315 316 318 318 316 316 316 316 316 315 315 315 315 315 317 316 319 323 326 328 330 332 334 335 335 335 335 336 335 336 336 335 334 334 333 331 329 326 324 324 323 324 324 325 325 324 323 325 328 329 330 329 328 327 326 326 326 324 321 321 322 321 321 321 322 321 321 321 321 321 321 321 321
319 321 321 318 315 318 318 318 316 316 316 315 314 312 312 313 314 314 315 315 315 316 315 314 314 316 317 317 316 316 316 316 316 315 314 315 316 315 316 317 319 322 326 329 330 331 333 334 334 334 334 335 335 335 336 335 334 334 334 333 331 327 326 326 325 325 325 326 326 324 323 324 326 328 329 328 326 325 324 325 326 325 323 322 323 322 322 322 322 322 322 322 322 322 321 321 321
316 318 321 319 316 317 317 317 317 316 316 315 314 312 312 313 313 313 314 315 315 314 315 314 314 316 317 317 317 316 315 315 316 316 315 315 316 316 315 317 319 320 325 329 331 331 332 333 332 332 334 336 335 334 336 335 334 334 334 334 332 329 327 326 326 326 325 326 325 323 323 323 324 327 327 325 325 324 322 323 325 326 324 322 323 323 323 323 323 323 323 323 323 322 322 322 322
316 318 321 319 317 317 317 317 317 316 317 315 313 312 313 313 313 313 313 314 314 314 314 315 315 316 316 316 316 315 315 315 315 315 315 315 316 318 318 319 320 318 320 325 330 332 332 332 331 332 334 337 337 335 336 336 335 334 334 334 332 331 329 327 327 327 325 324 324 323 324 324 325 325 324 323 324 323 321 322 324 326 326 324 322 323 323 323 323 323 323 324 324 323 323 323 322
316 318 320 318 317 317 317 316 316 316 316 314 312 312 315 314 312 313 314 313 314 314 314 315 315 315 315 316 315 315 315 315 315 315 315 316 316 318 320 320 320 318 319 321 323 326 329 331 331 331 332 336 337 334 335 336 336 335 334 334 333 332 331 330 327 326 325 324 325 324 324 325 326 325 324 323 323 323 322 322 325 325 326 325 324 323 323 323 323 323 324 324 324 324 324 324 323
317 319 318 316 317 317 318 318 316 317 317 315 312 312 315 315 313 313 314 314 314 314 314 315 315 315 315 315 315 314 315 315 315 315 314 315 315 317 318 319 319 319 321 322 320 320 322 325 328 330 330 332 333 332 334 335 335 335 334 334 333 333 332 331 330 327 327 327 327 326 326 327 327 326 325 324 323 323 322 323 325 326 326 326 325 323 323 323 323 323 324 324 324 324 324 324 324
317 319 316 316 319 317 316 317 316 315 316 315 313 313 315 315 314 314 315 315 314 315 315 314 314 315 315 315 315 315 315 315 314 314 314 314 314 315 316 316 317 317 319 322 321 319 319 322 324 326 329 329 328 328 330 333 334 334 334 334 334 334 332 332 332 330 328 328 328 328 328 328 328 327 326 324 323 323 323 323 325 326 326 326 325 324 323 323 323 324 324 324 323 323 323 323 324
315 316 316 317 318 315 313 315 315 314 315 315 314 312 313 314 314 314 315 316 315 316 316 315 315 315 315 315 315 315 315 314 314 315 314 314 313 313 314 314 314 315 316 318 318 317 320 329 331 328 329 330 329 326 323 328 333 334 334 333 333 333 333 332 332 332 330 329 329 329 329 328 328 328 327 325 324 324 324 324 325 326 326 326 326 325 324 323 324 324 324 324 323 322 323 323 324
315 315 316 315 314 315 313 313 313 312 313 314 314 312 313 314 313 314 315 315 315 316 316 316 316 316 315 315 315 315 315 315 314 315 314 314 313 313 314 313 313 313 313 314 316 315 318 328 334 333 333 333 332 328 324 326 329 332 333 332 332 332 332 332 332 332 331 330 330 329 329 328 328 328 327 326 325 325 325 325 326 326 326 326 326 325 324 324 324 324 324 324 324 323 323 323 323
315 313 313 312 312 315 313 311 312 312 313 313 313 313 314 313 313 314 314 315 316 317 316 315 316 316 315 315 315 315 314 315 315 314 315 314 314 313 313 313 313 313 314 314 315 315 316 321 327 330 333 334 333 328 329 333 331 330 331 330 330 330 330 331 332 332 331 331 331 330 329 329 329 328 328 327 326 325 326 326 326 326 326 327 326 325 325 324 325 324 324 324 324 324 323 322 322
315 313 311 310 312 314 312 311 312 312 312 313 314 314 314 313 314 313 313 315 316 316 315 315 315 315 315 315 315 315 314 315 315 315 315 314 314 314 313 313 313 313 314 314 314 315 316 317 319 322 325 329 333 329 329 335 334 330 332 331 329 329 329 328 330 331 330 331 331 330 330 330 330 330 329 328 327 326 327 327 327 327 326 326 327 326 325 325 325 324 325 325 324 325 323 321 321
316 315 312 311 311 313 313 312 312 312 312 313 313 314 313 314 314 313 313 315 315 315 315 315 315 315 315 315 314 315 315 315 315 315 315 314 314 313 313 313 313 313 313 314 315 315 315 316 317 317 318 320 327 329 326 331 334 331 334 336 332 332 331 327 327 331 331 329 329 328 329 330 330 331 330 329 329 328 328 328 327 328 327 327 327 326 325 325 325 325 325 325 325 325 322 321 321
315 314 312 312 312 312 313 312 312 312 312 313 313 314 314 314 314 313 313 315 315 315 315 315 315 315 315 315 315 315 315 315 315 315 315 314 314 313 314 314 314 314 313 314 314 314 315 315 316 316 316 315 318 324 323 326 331 329 333 337 335 335 333 328 326 329 330 327 329 330 330 330 329 330 330 329 329 329 329 329 328 328 328 328 327 326 325 325 325 325 325 324 325 324 322 321 319
315 314 313 313 313 313 313 312 312 312 312 313 314 315 314 313 313 314 316 316 316 316 316 316 315 315 315 315 314 315 315 315 315 315 315 314 314 314 314 314 314 313 313 313 313 313 314 315 316 315 315 316 315 319 318 320 325 325 330 335 335 334 332 329 325 326 328 327 329 331 331 329 329 330 330 329 329 330 330 330 329 329 328 328 327 326 325 325 325 326 325 324 324 323 322 321 315
313 313 313 314 314 313 313 313 312 312 313 313 314 315 314 312 313 316 318 317 317 317 316 316 315 315 315 315 315 315 315 315 315 315 315 314 314 314 314 314 313 314 313 312 312 312 313 314 315 314 313 314 315 318 317 317 319 320 325 331 334 333 330 325 324 327 329 328 328 330 329 327 329 330 330 329 330 330 330 330 330 329 328 327 326 326 326 326 325 325 324 324 324 323 321 318 311
313 313 314 315 315 314 313 314 313 313 314 313 314 315 313 312 313 316 318 317 317 317 317 316 316 315 315 315 315 315 315 315 315 315 315 314 314 314 314 314 313 313 312 312 312 312 313 313 313 313 312 313 313 315 316 316 317 318 320 324 328 329 326 323 326 329 328 329 329 327 326 326 329 331 329 328 329 330 329 329 329 328 327 326 326 326 326 325 325 324 323 323 324 322 319 314 309
314 314 316 316 316 316 314 314 313 313 315 313 313 314 314 313 314 316 317 316 317 316 316 316 316 316 315 315 315 315 315 315 315 315 315 315 314 314 314 314 313 312 312 311 312 312 313 313 313 313 313 313 313 313 313 313 315 316 317 319 322 324 324 324 327 328 326 329 329 326 325 325 327 329 328 327 327 328 329 329 328 327 327 326 326 326 324 325 324 323 322 323 323 320 317 311 307
315 315 316 317 317 316 315 313 312 313 314 313 313 315 317 317 316 317 316 315 315 315 315 315 315 316 315 315 315 315 315 315 315 315 315 315 314 314 314 314 313 312 312 312 312 313 313 313 313 313 313 314 313 313 313 312 313 314 315 318 321 323 326 327 329 329 328 328 327 327 328 326 324 325 326 324 326 329 329 328 328 327 327 326 325 325 324 323 323 322 322 323 321 318 314 308 305
315 314 315 317 316 316 315 312 312 314 314 313 314 315 317 319 318 317 316 315 315 314 315 315 315 315 315 315 315 315 315 315 316 315 315 315 314 314 314 313 313 312 312 312 313 313 313 314 313 314 313 313 313 313 313 313 313 313 314 318 322 326 330 331 330 330 329 326 326 329 329 327 325 325 325 323 324 328 329 327 327 326 326 326 325 324 323 322 321 322 322 321 318 315 311 306 304
314 313 316 316 315 316 316 312 312 314 313 312 315 316 317 318 318 316 316 316 315 314 315 315 315 315 315 315 315 315 315 315 315 315 315 315 314 314 314 313 312 312 313 313 313 313 314 314 314 314 314 314 313 313 313 313 313 313 314 317 320 326 330 330 329 328 327 326 327 330 330 328 327 325 325 323 323 326 328 327 326 325 324 324 325 324 323 321 321 322 321 318 314 312 308 305 304
315 314 316 316 316 316 316 312 310 312 313 313 314 316 317 318 317 315 315 315 314 314 315 315 315 315 315 315 315 315 315 315 315 315 315 315 315 315 314 313 312 312 313 313 313 313 314 314 314 314 314 314 313 313 313 313 314 314 315 317 318 322 327 328 327 326 324 325 328 329 328 327 326 325 324 324 324 325 325 325 325 324 324 324 325 323 322 321 321 321 320 315 310 308 306 304 303
315 316 316 316 315 314 315 314 311 310 312 314 314 314 316 317 317 316 315 315 313 313 315 316 316 315 315 315 315 315 316 316 316 316 316 315 315 315 314 313 312 312 312 313 313 313 314 314 314 314 314 314 313 314 313 313 316 317 318 321 320 320 325 325 323 323 322 324 326 327 327 326 325 324 323 323 323 324 324 323 323 323 324 324 323 321 321 321 321 320 318 311 305 305 305 303 302
315 316 315 315 314 313 315 315 312 311 312 314 315 314 315 316 317 317 316 315 313 313 314 315 315 315 315 315 315 316 316 316 317 317 316 316 315 315 314 314 312 312 312 312 313 313 314 314 313 314 313 314 313 313 313 313 318 320 320 323 324 322 324 323 322 324 324 324 325 325 326 325 324 323 322 321 320 322 323 322 321 322 322 322 321 321 321 321 320 318 315 308 303 304 304 302 302
315 316 316 315 314 314 315 315 312 311 313 314 315 315 316 316 317 318 317 315 313 313 313 314 314 315 315 316 316 316 316 317 318 317 316 316 315 315 314 314 312 312 312 312 313 313 313 313 314 313 313 313 313 313 313 314 318 320 321 325 327 324 322 323 324 326 327 327 326 325 324 323 322 321 320 320 319 320 321 321 321 321 321 321 321 322 321 320 318 315 311 305 302 303 302 302 301
316 316 316 316 316 315 315 315 311 311 314 316 316 316 317 317 317 318 318 315 313 313 313 313 314 315 316 316 317 318 318 318 318 317 317 316 315 315 314 314 313 312 311 312 312 313 313 313 313 313 313 313 313 313 315 315 317 318 320 324 326 321 321 325 325 325 326 326 325 324 322 321 321 320 319 319 318 319 319 319 319 319 321 321 321 322 320 319 317 311 306 303 302 302 301 301 301
315 315 316 316 316 315 316 315 311 311 313 316 316 316 316 316 316 317 317 316 315 315 315 315 316 316 317 318 319 319 319 318 318 317 317 316 316 315 314 314 313 312 311 311 312 312 313 313 313 313 313 313 313 313 314 314 315 317 319 322 324 321 323 325 323 323 325 324 323 322 321 320 320 320 319 318 318 318 318 319 319 319 321 322 320 320 318 317 313 306 302 302 302 301 301 301 300
315 316 316 316 316 316 315 314 311 311 313 316 316 315 316 316 316 317 318 317 317 316 316 316 317 317 317 318 319 319 319 319 319 318 318 317 316 316 315 314 314 313 312 311 311 312 312 312 312 313 312 313 313 312 313 313 315 319 322 323 324 323 324 323 322 323 324 322 321 320 320 319 319 319 318 318 317 317 318 319 320 320 321 321 319 318 316 313 307 302 301 302 302 301 301 300 300
316 316 316 316 317 316 314 314 312 311 312 314 315 315 316 317 316 317 318 318 318 317 317 316 316 317 317 318 318 318 318 318 319 318 318 317 316 316 315 315 314 313 312 312 311 311 311 312 312 312 312 313 313 312 313 314 317 322 324 324 323 322 323 323 322 323 323 321 320 319 318 318 318 317 317 316 315 316 319 320 320 320 320 320 318 316 313 307 302 300 301 301 302 302 301 300 300
317 317 316 317 318 316 314 315 314 313 313 312 314 316 317 319 319 319 319 317 316 316 316 316 316 316 317 317 318 318 317 318 318 318 317 317 316 316 315 315 314 314 313 313 312 311 311 312 312 312 312 312 313 313 313 314 316 321 322 322 321 321 322 323 323 322 321 320 319 318 318 317 316 316 315 316 316 318 320 320 319 319 319 318 316 313 308 302 300 300 300 300 301 301 300 300 300
317 317 317 316 316 316 316 316 315 316 317 314 314 316 317 319 319 320 319 317 317 317 316 316 316 316 317 317 318 318 317 317 317 316 316 316 315 315 315 314 314 314 314 313 312 311 311 311 312 312 312 312 313 312 312 313 315 318 319 319 320 321 322 322 322 321 320 319 318 318 317 316 316 315 315 316 317 318 319 319 319 318 318 317 314 309 303 300 301 301 300 300 299 299 299 299 299
316 317 316 315 315 316 316 316 316 317 318 315 314 317 318 318 318 318 319 318 319 318 318 318 317 317 317 317 318 318 318 318 318 317 316 316 315 314 314 314 314 314 314 313 311 310 310 311 311 311 312 312 312 312 312 314 316 319 318 317 319 321 321 321 321 320 320 318 318 317 316 315 316 315 315 317 317 318 320 319 318 318 318 315 310 304 300 300 301 300 300 300 299 299 299 298 298
317 317 315 314 315 316 316 316 317 317 317 316 316 318 319 319 319 318 318 318 318 318 319 320 319 318 318 318 318 318 318 318 318 318 317 316 315 314 313 313 313 313 313 312 311 310 310 310 311 311 311 312 311 311 313 315 317 320 320 318 319 319 319 319 319 319 318 317 317 316 314 315 316 314 316 317 317 318 319 318 317 317 314 309 303 300 300 301 301 300 300 300 299 299 299 298 297
317 313 312 313 315 316 316 317 318 316 317 318 318 317 318 319 318 316 317 318 318 318 319 320 321 320 319 318 318 318 318 318 318 317 317 316 315 314 313 312 312 312 312 311 311 310 310 310 311 311 311 311 311 312 315 316 318 320 320 319 319 319 318 318 319 318 317 317 316 314 313 315 316 314 315 317 317 316 317 317 315 311 306 302 299 299 299 300 300 300 300 299 299 298 298 298 297
314 311 312 313 314 315 316 317 318 317 318 321 320 317 316 317 318 317 317 318 319 319 319 320 321 320 319 318 319 319 318 317 317 317 316 316 315 313 312 311 311 311 311 311 310 310 310 310 311 311 311 311 311 313 316 316 318 319 318 318 320 319 318 318 319 318 317 316 314 313 314 315 315 314 315 316 316 316 316 314 309 303 300 299 299 299 299 299 300 299 299 299 298 297 297 297 297
312 314 316 316 315 315 316 316 317 318 319 320 320 319 317 317 319 319 318 318 318 319 319 320 321 320 319 319 319 319 318 317 316 316 316 315 314 312 311 310 310 310 310 310 310 309 310 310 310 310 310 310 310 312 315 315 316 317 317 318 319 319 318 318 318 317 316 315 313 313 315 314 314 314 315 315 315 315 314 308 302 299 299 298 298 298 298 298 299 299 299 298 297 297 297 296 296
313 318 319 318 317 316 317 317 318 319 319 318 316 317 318 319 319 319 318 317 316 318 319 319 321 321 320 319 318 318 317 316 316 316 316 315 314 313 311 310 309 309 309 310 309 309 309 310 310 310 310 310 310 312 314 314 315 316 317 318 318 318 318 317 317 316 316 314 312 313 314 313 314 315 315 315 314 312 309 302 299 299 298 298 297 297 298 298 298 298 298 297 297 296 296 295 295
314 318 318 317 316 316 317 319 319 319 319 315 313 314 317 319 319 317 317 316 316 316 317 318 320 320 319 319 318 317 316 315 315 316 316 315 315 314 313 311 310 309 309 310 309 309 309 309 309 309 310 310 310 312 315 315 315 317 318 317 316 316 316 316 316 315 315 314 311 313 314 313 314 315 314 315 312 308 303 299 298 299 298 297 297 296 297 297 297 297 297 297 296 296 296 295 295
315 318 319 317 316 317 318 318 317 317 317 313 310 314 317 318 318 318 318 317 318 318 317 317 318 318 319 319 317 315 314 314 315 316 316 316 315 314 313 312 310 309 309 310 309 309 309 309 309 309 310 310 310 313 315 316 317 317 317 316 315 315 313 313 313 313 314 312 311 312 314 314 315 314 313 313 309 303 300 298 298 298 297 297 296 296 296 296 296 297 296 296 295 295 295 295 295
316 319 318 317 317 317 317 317 316 316 317 313 310 315 318 318 317 317 317 317 317 317 317 317 317 317 319 318 315 313 314 314 315 316 316 316 315 314 312 312 311 310 310 310 309 309 309 309 309 309 309 310 311 313 316 317 318 317 316 315 314 313 312 311 311 312 312 311 310 313 314 314 314 312 311 309 305 300 298 298 298 297 296 296 295 296 296 296 296 296 296 295 295 295 295 295 295
315 316 317 318 317 315 313 315 315 314 316 315 313 315 317 317 317 316 315 315 315 315 315 315 316 318 318 316 314 314 315 315 315 315 316 316 315 314 313 312 311 310 311 310 310 309 309 309 309 310 309 310 312 314 315 316 316 315 315 314 313 313 311 310 311 312 312 310 310 313 313 313 313 311 308 306 302 298 298 298 297 296 296 295 295 295 295 296 296 296 295 295 295 295 295 294 294
315 315 317 316 314 315 315 314 312 312 316 317 316 317 317 316 317 316 315 315 315 315 314 314 315 316 316 314 315 316 316 316 316 315 315 315 315 315 314 312 311 311 311 311 310 309 309 310 309 310 309 310 313 315 314 314 314 313 313 312 312 312 311 310 310 311 311 310 310 312 312 312 312 309 305 303 300 298 298 297 297 296 295 295 295 295 295 295 295 295 295 295 295 295 294 294 294
315 316 317 315 313 316 316 316 316 316 318 319 317 317 317 317 318 317 316 317 316 315 315 315 315 315 314 314 316 317 316 316 316 315 315 314 314 314 314 313 311 311 311 311 311 310 309 310 309 310 309 310 312 314 314 314 314 313 312 311 312 312 310 309 309 311 311 311 311 311 311 312 311 307 302 300 299 298 298 297 296 295 295 295 294 295 295 295 295 295 295 295 294 294 294 294 294
313 315 316 316 317 318 316 317 319 319 320 319 318 317 316 318 319 317 318 318 317 317 317 316 316 316 315 316 317 317 316 316 316 315 315 314 314 314 314 313 311 311 311 311 310 310 309 310 309 310 309 309 311 312 313 315 315 314 313 311 311 312 310 309 309 310 310 310 310 310 311 311 310 305 300 299 298 298 298 297 296 295 295 294 294 294 295 295 294 294 295 295 294 294 294 294 294
311 313 315 314 316 318 317 317 317 318 319 319 319 318 317 319 319 318 318 318 318 319 318 317 317 317 316 317 317 316 315 316 315 315 314 314 314 314 313 313 312 311 311 310 310 310 309 310 309 309 309 309 310 311 314 315 315 314 313 311 311 311 311 309 308 309 309 309 310 310 310 310 308 303 299 298 298 298 297 297 296 295 294 294 294 294 294 294 294 294 294 295 294 294 294 295 295
314 315 316 315 314 315 316 317 316 317 318 318 320 320 319 319 320 318 318 318 318 319 319 320 319 317 317 318 317 315 315 315 315 315 314 313 313 313 313 313 312 311 311 310 310 310 310 309 309 309 310 310 310 311 313 315 315 314 312 312 311 311 310 309 307 309 309 309 309 309 310 309 305 301 299 297 297 297 297 296 296 295 294 294 294 294 294 294 294 294 295 294 294 294 295 296 297
316 316 317 316 316 315 317 318 316 315 318 319 319 320 320 318 319 319 318 319 319 319 319 321 319 317 317 316 315 315 316 316 316 315 314 313 312 313 313 313 312 311 310 310 310 310 309 309 309 309 309 310 310 311 313 315 314 313 312 311 311 310 310 308 307 308 309 308 309 309 309 307 304 300 298 297 297 297 296 296 295 295 294 294 294 294 294 294 294 294 295 294 294 294 295 297 298
Wind_Speed
7 9 10 9 8 7 5 2 2 3 0 3 3 1 3 1 2 2 4 3 1 2 2 3 5 7 4 1 2 3 3 1 2 2 1 5 11 12 12 13 12 13 13 11 10 9 8 8 8 8 7 7 7 8 8 7 6 7 7 7 6 6 7 7 8 10 10 9 9 9 10 10 11 12 13 13 14 16 16 16 16 15 14 14 14 14 13 13 12 12 11 12 13 14 14 12 12
9 10 10 9 7 4 2 0 0 2 2 4 2 1 3 2 2 4 4 3 3 6 7 7 8 7 3 2 3 2 2 1 1 2 4 10 11 10 11 11 13 14 14 12 10 10 9 8 9 8 7 7 7 7 7 7 7 7 7 5 5 4 5 7 8 9 9 9 9 10 11 11 11 12 12 13 15 16 16 16 16 16 15 15 14 14 14 14 13 13 13 15 17 16 13 11 12
10 11 10 8 5 3 2 1 1 2 2 4 3 2 3 3 4 4 5 7 10 13 12 10 7 5 3 2 2 0 2 4 6 7 8 11 9 8 11 10 12 14 15 13 11 11 10 9 9 9 8 7 6 6 6 6 7 7 6 5 4 4 4 6 7 8 8 8 9 11 12 11 11 12 12 13 14 15 16 16 16 17 16 15 15 15 15 14 13 13 15 17 17 14 12 11 13
11 11 10 7 4 3 1 1 1 1 3 3 3 4 4 3 6 5 7 9 12 11 8 6 4 2 3 2 2 2 3 5 8 10 9 11 9 9 11 11 12 14 15 13 11 12 10 10 9 9 9 7 5 6 7 6 6 6 6 5 4 4 4 5 6 8 8 8 9 10 11 11 10 11 11 12 14 15 16 16 17 17 16 15 15 14 14 14 14 14 15 16 15 13 13 14 15
10 10 9 5 2 2 1 1 1 1 3 2 2 5 5 4 7 8 8 9 9 6 3 3 2 3 2 2 3 1 4 6 8 10 10 11 10 9 10 11 13 16 16 13 12 12 10 11 9 9 9 7 5 5 6 6 5 6 5 4 4 4 4 5 6 7 7 7 8 9 10 9 9 9 10 11 13 14 15 16 17 17 17 15 14 14 13 13 15 16 16 17 16 16 17 18 18
9 8 7 5 3 2 1 2 1 2 4 2 2 6 6 6 9 10 8 7 5 4 3 3 1 3 3 3 3 4 7 7 7 9 9 10 9 9 10 11 14 18 17 13 12 12 10 11 10 9 9 8 6 5 6 6 5 5 5 4 3 3 4 4 5 6 6 7 7 8 9 8 8 8 10 10 12 13 15 16 17 17 16 15 14 14 13 13 15 16 18 18 19 19 19 19 18
10 8 6 6 5 2 0 2 2 3 3 2 2 5 7 8 8 9 9 6 4 5 6 4 3 4 3 4 5 7 9 8 9 9 9 9 9 9 10 11 14 17 16 13 13 13 11 11 10 9 9 8 7 6 5 6 6 5 5 4 3 3 3 3 4 5 6 6 5 6 7 6 6 7 9 9 11 12 14 15 16 16 16 15 14 13 14 14 15 17 18 19 19 19 19 18 18
9 5 4 4 3 2 1 3 2 2 2 1 2 2 6 8 8 8 9 6 4 5 6 6 6 3 3 6 3 6 8 9 10 9 9 9 10 10 10 12 13 13 13 13 13 13 12 11 10 9 9 8 7 7 5 6 7 6 5 4 4 3 2 2 3 4 4 5 4 4 5 4 5 6 7 8 9 11 12 14 16 15 15 15 14 13 14 15 16 17 18 19 19 19 18 18 18
7 4 3 3 1 2 2 2 2 1 1 1 2 2 4 8 8 7 8 4 3 5 5 7 8 2 5 7 1 6 9 9 10 9 9 8 10 11 11 13 12 12 12 14 13 12 11 10 10 9 9 8 8 7 5 5 7 7 5 4 4 3 2 2 3 3 4 4 4 4 3 3 3 4 5 7 8 9 10 12 14 15 15 15 14 14 15 16 16 17 18 19 19 18 18 18 18
4 3 4 2 1 2 2 2 1 1 2 1 2 3 5 10 8 6 6 4 4 5 6 9 7 1 4 6 2 7 9 9 10 10 10 9 10 11 12 14 14 14 14 14 14 12 11 10 10 9 9 8 8 8 7 6 6 6 5 4 3 3 3 2 3 3 3 3 3 3 3 2 3 3 4 5 6 8 9 10 12 13 14 14 14 15 16 17 17 17 19 19 19 19 19 18 18
2 3 3 2 2 2 2 3 2 2 2 1 2 4 6 11 8 4 4 3 6 4 7 11 5 3 5 4 3 8 10 10 10 11 11 11 10 11 12 14 17 18 15 15 15 12 13 12 10 9 9 9 9 9 9 7 7 6 4 4 3 3 3 2 3 3 3 3 2 2 2 2 2 2 3 4 5 7 7 9 10 11 12 13 14 15 16 17 17 18 19 19 19 19 18 18 18
1 2 2 2 2 0 1 3 4 3 2 3 5 6 8 11 7 6 6 4 7 5 7 10 4 5 5 2 5 9 11 10 11 12 11 11 11 11 12 13 17 20 18 17 17 15 14 14 12 10 10 9 9 10 10 8 7 6 4 3 4 4 3 2 2 3 3 3 2 1 1 2 1 1 1 2 4 5 6 6 8 9 10 12 13 14 15 16 17 18 18 18 17 17 17 17 17
1 2 2 2 1 1 2 2 3 2 3 5 5 7 10 10 7 6 7 5 7 6 7 11 6 4 4 2 5 10 11 11 12 13 12 12 12 12 12 12 15 19 20 20 19 18 16 15 14 12 11 10 9 9 11 10 8 7 6 4 5 5 5 4 3 4 3 3 3 2 1 1 0 0 0 1 3 4 4 4 5 7 8 10 12 13 14 15 16 17 17 17 16 16 16 16 16
4 3 1 2 1 0 2 2 3 4 4 5 5 9 12 8 7 6 7 6 8 6 6 11 8 4 4 3 5 10 12 12 13 13 13 12 12 12 12 12 14 18 20 21 20 19 18 17 16 14 12 11 10 10 11 11 10 9 8 6 6 7 6 6 5 5 4 4 4 2 1 1 1 1 2 2 2 3 4 3 4 6 7 8 10 11 12 14 14 15 16 17 16 16 15 15 15
7 6 2 3 2 2 2 0 3 5 4 7 7 11 12 7 8 8 7 6 7 8 6 8 9 4 2 3 3 8 12 13 14 14 14 13 13 12 12 13 14 16 18 20 21 20 19 19 19 16 14 12 11 12 12 13 12 10 10 8 8 8 7 7 7 6 6 6 5 3 3 2 2 2 4 3 3 3 3 2 4 5 5 6 8 9 10 11 12 13 14 15 15 15 14 15 15
8 6 2 2 2 2 3 1 2 4 3 6 10 13 9 6 8 8 8 7 4 9 8 6 11 7 2 4 2 4 10 13 15 15 15 14 14 13 12 13 13 14 16 18 21 21 20 21 20 18 16 14 13 14 13 14 13 11 10 10 10 9 8 8 8 8 7 6 5 5 3 3 3 4 4 4 3 3 3 3 4 4 4 5 6 7 8 9 10 11 12 13 14 14 14 15 16
7 4 1 2 2 2 4 5 4 2 3 6 10 13 9 5 8 8 9 9 5 8 10 9 12 11 6 6 5 3 6 11 14 16 16 16 15 15 15 14 13 12 13 14 18 20 20 21 21 20 18 16 15 16 14 14 13 12 12 11 11 9 9 9 9 9 8 7 6 5 3 3 4 4 4 3 3 3 3 2 4 4 4 4 4 5 5 6 7 8 10 12 13 14 14 14 16
4 2 2 2 2 3 4 7 5 1 3 9 11 13 9 5 8 9 7 8 8 7 11 13 12 13 12 9 8 6 6 10 14 16 17 17 17 17 17 17 15 14 14 14 14 16 17 18 19 19 18 18 18 17 17 15 13 13 13 13 12 11 10 10 10 10 9 8 7 5 4 5 5 5 4 3 3 4 3 1 2 3 4 3 3 3 4 4 5 6 8 10 12 13 13 14 15
2 1 2 2 2 2 2 6 6 1 3 10 11 13 10 5 9 10 7 7 8 8 10 13 14 14 15 14 13 11 9 10 13 16 18 18 19 18 18 17 16 16 17 16 15 16 16 16 17 16 17 18 17 17 18 18 15 14 14 14 14 12 11 11 11 11 10 9 8 7 6 6 6 6 6 4 4 5 4 1 1 2 3 3 2 2 2 3 4 5 6 8 11 12 13 14 15
2 1 3 1 1 1 2 6 6 3 3 9 10 12 8 4 9 10 6 5 6 10 10 11 15 17 17 16 15 14 13 12 13 16 18 19 19 19 19 18 17 17 17 18 17 16 16 17 19 17 18 19 18 16 16 18 17 16 16 15 15 14 13 13 12 12 12 11 9 8 8 8 8 8 8 5 5 5 5 2 0 2 3 2 2 1 2 2 3 4 5 7 9 11 13 14 14
1 1 1 2 1 1 4 7 6 3 3 8 9 10 7 6 11 10 6 5 7 12 15 14 14 16 16 16 16 15 15 14 15 16 18 20 20 20 19 18 17 17 16 17 16 16 17 19 21 20 20 21 20 17 15 17 18 17 17 16 16 16 15 14 14 13 13 12 11 10 9 10 10 10 9 7 6 6 5 4 2 2 2 2 2 1 1 2 2 3 5 6 8 10 12 13 13
3 1 2 3 1 1 4 6 6 3 4 8 9 8 7 8 10 11 10 9 7 8 14 15 14 14 15 15 14 15 15 16 16 17 18 20 21 20 19 18 17 17 17 17 16 16 17 19 21 22 22 23 21 19 17 17 19 19 18 19 18 17 17 16 15 15 14 14 12 11 10 10 11 11 10 8 8 7 7 6 4 4 2 3 3 1 1 2 3 3 4 5 7 9 10 11 11
2 2 1 2 2 2 4 5 6 5 5 8 9 8 7 8 7 11 15 16 11 9 10 10 11 13 14 15 15 15 15 16 16 17 18 20 20 20 19 18 17 17 17 17 16 16 17 18 20 21 23 26 25 23 22 20 21 20 18 21 22 19 18 17 17 16 16 15 13 12 12 11 11 11 11 10 10 8 8 8 6 6 4 4 4 3 3 4 3 3 5 6 7 8 10 11 10
1 4 3 3 3 2 4 4 6 7 6 7 8 7 6 8 6 8 16 22 20 17 15 12 12 11 12 14 14 15 15 15 16 17 18 20 20 20 19 19 18 18 18 18 17 16 17 17 18 18 20 25 28 28 26 24 23 21 16 18 22 21 19 18 18 17 15 15 15 15 12 12 11 11 11 11 11 11 10 10 8 8 7 7 6 5 5 4 2 3 4 5 7 7 9 9 8
2 4 4 3 3 2 4 5 6 6 5 6 7 6 4 7 7 8 16 22 20 19 18 17 17 16 16 16 16 16 16 16 17 17 19 20 21 20 20 20 19 19 20 19 18 18 17 17 17 17 17 20 26 28 29 29 27 25 19 16 18 18 17 16 17 20 17 15 17 17 12 11 13 13 12 10 12 14 13 12 11 10 10 11 9 8 7 6 3 1 3 5 6 6 7 7 7
3 4 5 4 3 3 4 5 5 5 4 4 5 4 2 5 6 11 20 22 21 21 21 20 20 20 20 19 19 19 18 18 18 18 19 20 21 21 20 20 20 20 21 20 19 19 18 18 17 17 17 18 22 26 28 31 30 28 25 21 19 18 17 15 16 19 18 14 15 16 11 11 15 15 14 10 11 16 17 16 15 14 14 14 12 10 9 7 4 1 3 4 3 4 5 4 6
6 7 7 5 4 4 3 3 4 4 3 4 5 2 1 2 3 8 11 12 15 17 20 21 21 21 21 20 20 20 20 19 18 19 19 20 21 21 20 20 20 21 20 20 19 19 18 18 17 17 18 18 20 23 25 26 27 28 29 28 25 24 22 17 16 17 16 14 15 16 14 15 17 15 13 9 11 19 24 21 18 17 17 17 14 11 8 7 4 2 4 4 2 3 3 4 7
7 7 7 4 3 3 3 3 3 3 3 3 4 3 2 2 4 11 10 8 10 11 15 18 20 21 20 20 20 20 20 19 19 20 21 21 20 20 19 19 20 20 19 19 19 19 18 17 16 16 17 18 20 22 23 23 24 26 29 31 31 29 23 17 16 15 13 14 14 14 15 15 15 13 10 8 10 17 22 21 19 19 19 17 13 10 8 7 5 3 4 3 2 2 2 4 7
6 5 3 2 1 2 3 2 3 4 3 1 1 5 6 8 12 17 14 14 14 13 16 17 18 20 19 20 21 21 21 20 20 22 22 21 20 19 19 19 20 20 19 19 18 18 18 16 15 15 16 17 18 20 21 21 23 25 26 27 28 26 22 19 17 16 14 14 14 15 16 15 14 13 10 8 10 13 13 15 17 18 18 15 12 11 10 8 6 4 3 2 2 1 1 4 7
5 3 1 1 2 2 2 1 2 3 3 2 2 6 6 10 16 17 14 16 15 16 19 20 20 20 20 20 21 22 21 21 22 22 22 21 21 21 21 20 19 20 19 18 18 18 18 17 16 16 16 16 17 17 18 19 21 22 21 20 21 19 20 21 20 19 18 16 16 18 18 16 15 14 11 10 12 13 12 12 11 13 15 14 14 12 9 6 5 4 2 2 3 1 1 5 7
2 1 1 0 2 1 3 2 2 3 3 5 4 7 6 4 8 10 13 16 15 16 18 18 21 20 21 22 21 22 21 22 22 22 22 22 23 23 22 20 20 20 20 19 18 18 18 18 17 17 17 17 17 17 17 18 18 19 19 21 22 19 18 19 18 16 16 15 19 22 20 17 16 15 12 11 13 11 11 12 10 9 10 11 14 12 7 5 5 3 4 4 2 1 3 6 8
2 2 2 1 2 1 2 2 2 2 2 7 7 6 8 5 3 5 8 11 13 16 17 17 21 21 22 23 23 23 23 23 23 23 24 25 25 24 23 21 20 21 20 20 19 19 19 18 18 18 18 18 17 17 18 17 17 16 17 21 23 22 19 17 14 13 13 15 17 20 20 17 16 14 11 11 13 12 11 13 10 7 9 11 13 12 7 6 5 6 7 4 2 2 5 8 9
1 2 2 2 2 2 0 2 1 1 2 6 8 6 7 3 2 4 3 5 9 14 17 18 22 22 23 24 24 24 24 25 25 25 26 26 26 25 24 22 21 22 22 22 22 21 21 19 19 19 19 19 18 18 18 17 17 15 15 17 20 23 22 18 16 15 17 18 15 14 16 15 14 13 10 10 13 14 13 13 10 9 12 13 14 12 9 7 7 8 7 4 3 4 7 9 10
2 1 1 1 2 2 2 2 3 0 1 6 8 8 12 10 6 7 7 10 11 13 18 19 20 22 22 24 25 26 26 27 27 27 27 27 27 26 25 23 23 24 24 24 24 23 22 21 21 20 20 20 18 18 18 17 17 15 15 17 17 20 21 18 18 18 19 20 17 13 13 13 11 11 10 10 13 15 16 16 14 13 15 15 14 13 12 10 10 9 7 7 7 7 9 11 11
3 3 2 1 2 3 4 2 2 2 2 5 8 10 15 16 15 16 16 18 17 17 19 21 23 24 23 24 26 27 29 29 28 27 27 28 28 27 26 25 24 25 26 26 25 24 23 22 22 22 21 20 19 19 18 17 18 17 16 18 18 18 18 16 17 18 18 18 18 18 17 13 11 10 10 10 13 17 19 19 18 18 18 17 16 15 13 13 12 10 8 9 11 11 10 10 10
3 3 2 1 2 4 5 2 2 1 4 8 11 13 15 16 16 18 18 17 19 19 20 24 28 29 28 29 29 30 31 30 27 26 28 29 29 28 28 27 26 27 28 27 26 26 25 24 23 23 23 21 20 19 18 18 20 20 19 19 20 18 17 16 16 19 19 19 20 20 18 14 12 11 9 11 13 17 20 19 19 19 19 19 18 16 14 14 12 10 10 10 12 13 12 11 10
4 3 2 2 2 6 4 0 2 1 4 8 11 13 15 15 15 18 18 14 15 17 18 24 30 32 33 33 34 35 35 33 28 27 28 29 30 30 30 29 28 28 29 28 28 27 26 25 24 24 23 22 21 20 20 19 20 22 21 21 20 17 17 17 17 19 21 21 19 17 15 13 12 11 10 12 13 16 17 17 19 19 18 18 17 15 14 13 11 10 11 12 12 12 13 12 10
3 3 2 2 3 6 5 1 1 2 2 7 9 12 15 14 14 18 18 14 15 20 20 25 32 34 35 36 38 38 37 36 33 32 31 31 32 32 32 32 31 30 31 30 30 29 27 25 25 25 23 22 21 21 21 20 20 21 21 22 20 18 19 20 19 20 20 18 16 15 13 11 10 10 12 14 14 15 17 19 21 19 18 18 17 16 14 12 12 12 13 14 13 11 11 12 11
2 2 1 2 2 4 5 1 1 1 3 5 7 11 13 12 14 18 21 21 21 25 28 32 33 31 35 39 41 40 39 38 37 36 36 34 34 35 35 36 33 32 32 32 32 30 28 26 26 25 24 22 22 21 22 21 21 21 22 22 21 21 22 21 20 20 19 15 14 14 12 10 10 11 13 14 16 18 19 21 21 20 19 19 18 16 15 14 14 15 14 13 13 12 11 11 10
3 3 3 3 1 2 4 0 1 2 3 5 8 12 12 12 14 17 24 25 22 25 32 36 35 34 39 42 40 39 39 39 39 39 38 37 37 37 38 38 36 34 34 34 33 32 30 28 28 27 25 23 22 22 22 22 22 23 23 23 22 22 22 21 22 21 18 15 14 12 10 10 12 13 14 17 20 21 20 19 19 20 19 19 18 17 16 17 16 16 15 12 10 11 11 12 11
4 5 5 4 2 4 4 2 3 3 2 3 8 12 9 7 10 11 11 11 14 22 25 28 35 41 44 44 42 41 40 41 40 39 39 38 37 38 39 39 38 37 36 35 35 34 32 30 29 27 25 24 23 22 22 23 24 25 25 25 23 23 23 24 24 21 18 16 15 13 12 14 14 15 18 20 21 21 20 18 17 18 18 18 17 16 16 18 17 16 15 13 10 7 8 11 11
3 6 8 9 6 5 4 2 4 5 3 1 5 8 5 3 5 6 1 1 7 12 14 20 29 34 37 40 42 42 42 42 41 40 40 39 36 36 38 39 40 39 38 37 37 35 32 30 29 27 26 24 23 23 23 24 26 26 26 26 25 25 25 25 23 19 18 17 17 16 15 15 16 18 21 22 22 22 21 19 17 17 17 17 17 17 18 19 18 17 14 13 11 9 8 9 10
2 2 4 7 5 3 3 1 2 4 3 0 2 6 7 3 7 8 5 5 9 9 10 19 26 28 31 33 34 35 36 37 37 37 38 37 36 35 37 39 40 40 39 38 37 35 32 30 29 28 26 25 24 24 25 26 27 26 24 24 25 24 23 23 21 19 19 19 19 18 17 17 19 21 22 24 25 24 22 20 19 18 18 18 19 20 20 20 19 17 16 14 12 11 10 9 9
0 1 1 3 4 4 3 2 4 4 4 2 2 1 9 8 5 6 8 9 11 12 13 17 23 27 27 28 31 32 32 32 31 32 32 33 34 34 35 36 38 39 40 39 37 35 32 30 29 28 26 25 24 25 26 27 28 27 25 25 24 23 22 22 21 20 20 20 20 19 18 19 23 23 24 26 26 23 22 22 22 21 21 21 22 22 21 20 19 17 16 15 13 12 12 11 10
1 1 1 3 3 3 3 2 2 1 4 4 4 5 7 9 1 3 5 8 9 12 14 14 19 21 19 22 26 26 26 26 25 26 27 27 28 29 30 33 36 38 40 39 36 34 32 31 30 28 26 25 25 25 27 28 28 28 27 26 24 23 21 21 23 22 22 21 20 19 20 23 25 25 25 25 25 24 23 23 23 23 24 24 24 23 22 20 19 17 16 15 14 14 13 12 12
3 5 5 6 5 4 3 1 1 0 4 6 7 9 6 9 3 6 3 5 8 10 11 12 17 20 19 21 22 20 19 19 19 20 21 22 22 23 26 30 34 37 39 38 34 33 32 31 30 28 26 26 25 26 27 28 29 29 28 26 24 24 22 23 25 24 23 22 20 20 23 26 26 26 27 27 26 25 24 24 25 26 26 25 24 23 22 21 19 18 16 15 15 15 14 13 13
10 8 5 6 4 3 2 0 1 2 7 4 7 13 11 8 1 6 4 3 6 8 9 10 14 19 22 21 18 17 16 16 15 15 17 18 19 19 22 28 33 35 38 36 32 33 33 32 31 28 27 26 26 27 28 28 29 29 28 25 24 25 25 26 27 25 24 22 21 23 27 27 27 28 28 27 27 26 26 26 27 27 27 25 24 24 23 22 20 19 18 17 16 16 15 13 13
6 3 3 3 1 1 1 2 1 5 6 1 2 5 10 10 4 4 2 2 5 6 8 9 9 16 22 18 14 14 14 13 12 12 14 16 17 18 21 27 31 34 37 35 32 35 35 32 31 29 28 27 27 29 30 29 29 28 27 26 24 24 25 26 27 25 24 22 23 27 29 28 28 28 28 27 27 27 28 29 29 28 27 26 25 24 23 22 21 19 19 18 17 16 15 14 13
2 3 5 4 2 1 3 3 2 6 5 1 2 1 6 11 8 5 6 8 9 8 10 12 11 18 25 22 17 15 13 10 9 10 12 13 16 18 21 26 31 35 37 34 34 36 35 32 31 30 29 28 29 31 31 31 30 29 28 27 25 24 24 26 26 26 24 23 25 30 31 30 29 28 28 28 28 30 31 30 30 28 27 26 25 24 23 22 21 20 19 18 17 16 15 14 13
6 6 7 6 4 3 5 3 1 5 3 1 1 1 5 8 7 12 17 16 14 13 16 21 21 23 28 28 23 18 14 11 10 11 11 13 15 17 20 25 30 34 36 34 35 37 35 33 32 31 30 30 30 32 32 32 33 32 30 28 26 26 26 27 27 26 25 24 28 31 31 30 28 27 28 29 30 32 32 31 29 27 26 25 25 24 23 22 21 20 19 18 17 16 15 14 13
7 3 2 5 4 3 4 3 3 5 3 0 2 2 5 3 1 6 10 9 11 15 22 27 28 30 35 34 28 23 22 20 18 16 14 13 13 15 19 24 29 33 34 34 35 36 36 34 33 32 31 31 32 33 33 34 34 33 31 29 27 27 27 27 26 25 25 26 29 31 29 28 26 25 27 29 32 33 32 30 28 26 26 25 24 24 23 22 21 20 19 18 18 17 15 14 13
3 1 1 4 3 2 2 1 1 2 4 3 4 4 5 3 3 5 5 6 9 14 18 23 30 37 37 33 30 30 32 30 27 25 22 20 17 16 19 24 29 32 33 34 35 36 36 36 34 32 30 31 34 35 35 35 34 32 31 30 30 29 27 27 27 26 25 27 30 30 28 27 26 25 28 30 32 32 31 29 27 26 26 25 24 23 22 22 21 21 20 19 18 17 15 14 13
3 3 4 2 1 0 2 1 3 1 6 4 4 6 6 5 8 8 9 11 11 10 12 17 27 33 29 28 32 35 35 33 31 28 27 26 24 21 21 24 29 31 32 32 34 35 36 36 34 31 30 32 35 36 36 35 34 33 32 31 31 31 29 28 28 28 26 27 30 30 28 27 26 26 29 31 32 31 30 28 27 26 26 25 24 23 22 22 21 21 20 19 19 17 16 14 14
4 4 6 4 2 1 2 4 0 2 6 4 3 7 8 5 6 2 5 6 8 9 12 16 21 23 23 29 35 35 33 32 30 27 25 24 24 23 23 24 28 30 29 30 32 34 36 35 33 32 31 33 35 36 36 36 36 34 33 32 32 32 30 29 29 30 29 28 30 30 29 28 28 28 29 31 32 31 29 28 27 26 26 25 24 23 23 22 22 22 21 20 19 17 16 15 14
1 1 4 3 2 3 4 4 4 3 5 5 3 5 9 10 7 2 5 6 7 9 10 10 12 15 21 29 32 29 28 27 26 26 26 23 22 24 24 24 26 28 28 29 32 34 36 35 33 32 32 33 35 36 36 38 38 36 33 32 32 32 31 30 31 31 31 30 29 29 29 29 29 29 30 32 32 31 29 28 28 27 26 26 25 24 24 24 23 23 22 21 20 18 17 15 13
2 1 3 1 2 2 4 3 2 3 4 5 3 4 9 8 5 5 8 10 11 10 8 6 8 15 19 20 23 22 19 18 19 22 24 24 23 23 24 24 25 27 28 29 33 35 35 34 34 33 33 34 36 37 38 39 39 37 33 32 33 34 33 31 32 32 30 29 29 29 30 30 31 31 32 33 32 31 30 29 28 28 27 27 26 26 25 25 24 24 23 22 20 19 17 15 12
5 6 7 5 2 0 1 2 0 2 3 4 4 7 10 3 6 6 9 10 11 10 8 5 7 14 15 11 14 15 12 12 13 15 18 21 22 23 24 24 25 27 29 31 33 35 35 35 35 34 34 36 37 38 40 41 40 38 35 34 34 35 34 33 33 31 29 28 29 30 30 31 31 32 33 33 32 31 30 29 28 28 28 27 27 27 26 26 25 25 24 23 21 19 17 14 12
5 7 9 10 8 5 4 4 3 2 4 3 3 8 11 2 4 5 7 7 8 8 6 5 6 11 14 11 11 11 9 9 10 12 14 15 18 21 23 25 26 28 31 33 35 36 37 37 35 35 36 38 38 39 40 41 40 38 36 35 35 36 36 34 32 30 28 28 29 30 32 32 33 33 34 33 32 31 30 29 29 28 28 28 27 27 26 26 26 26 25 23 22 20 17 14 12
Wind_Direction
145 146 147 141 132 132 118 159 124 54 62 85 85 131 110 69 349 162 147 151 152 103 142 128 144 165 174 356 54 66 48 297 333 337 24 136 157 162 169 178 183 185 179 172 173 167 161 161 155 150 142 134 124 114 109 104 91 84 81 84 87 91 91 83 75 67 59 59 66 67 64 64 63 63 64 66 65 60 55 54 54 57 59 61 62 61 59 58 60 65 68 71 73 73 77 81 73
149 146 142 136 128 143 121 150 129 99 128 102 101 18 96 156 200 150 130 111 80 105 128 127 136 157 173 104 100 106 105 85 128 120 132 152 155 162 170 174 181 187 183 175 173 169 167 170 160 154 150 142 130 115 109 104 90 81 78 76 78 80 84 79 72 63 58 63 71 73 69 66 67 65 66 68 66 61 55 54 55 55 57 61 62 61 61 60 62 68 74 76 77 79 84 82 70
149 143 138 134 118 111 121 11 65 116 94 92 104 101 132 170 152 120 101 100 106 117 121 125 135 149 188 196 172 304 80 103 136 135 141 149 151 175 175 175 182 185 182 175 174 173 169 172 167 158 156 150 139 123 113 110 100 91 87 78 78 82 82 77 69 61 59 73 82 81 76 71 71 68 66 68 66 60 54 52 53 54 55 59 62 64 65 64 66 72 78 83 86 91 92 80 67
146 142 134 132 125 94 88 9 58 84 78 95 107 134 177 159 134 118 114 123 125 121 118 140 145 166 226 224 138 94 98 123 137 135 150 161 163 181 178 179 184 182 178 175 177 175 172 174 172 163 154 153 151 137 125 118 111 102 95 89 87 93 89 80 70 62 62 82 89 83 81 77 73 67 63 65 64 57 53 51 51 53 53 56 61 65 68 69 72 75 81 88 91 89 85 78 69
144 146 143 143 161 79 68 83 94 11 73 95 107 143 181 149 137 134 139 149 150 133 125 181 150 129 158 138 136 104 123 138 147 146 157 170 172 180 182 181 181 181 178 176 177 175 177 175 173 170 158 160 169 154 137 123 113 102 99 97 96 106 100 86 74 65 68 89 95 86 83 77 71 63 60 64 61 54 52 50 50 51 52 54 60 65 68 70 76 79 81 85 86 81 77 75 71
138 140 144 131 95 89 144 119 110 84 65 9 94 137 166 150 145 142 147 164 187 210 196 221 205 140 128 138 163 142 141 144 155 158 160 168 174 178 181 179 179 183 180 177 177 176 181 177 176 179 169 170 180 169 149 134 120 105 102 99 105 119 107 91 78 71 74 91 99 91 85 75 69 62 62 65 57 51 50 50 49 51 52 55 59 66 67 67 75 81 82 82 81 78 75 73 71
133 124 134 126 81 46 162 97 100 100 75 354 48 125 152 149 147 146 156 174 200 218 213 223 191 166 136 135 147 152 152 152 159 162 162 163 166 170 175 177 178 184 182 178 181 181 183 180 177 185 181 175 184 185 165 148 131 117 110 101 116 132 115 99 84 81 79 87 95 91 85 76 70 64 65 65 54 49 48 49 48 50 53 56 60 66 70 70 73 80 81 81 79 77 75 73 72
143 135 148 142 64 15 106 100 101 64 80 351 334 110 142 150 156 160 169 184 181 185 208 200 182 188 139 140 147 172 164 158 164 162 163 162 161 164 168 175 176 184 185 179 185 190 184 181 179 186 188 179 188 195 181 157 140 132 125 116 130 139 127 108 93 92 86 87 90 88 84 73 69 67 65 61 52 48 47 47 47 50 54 56 61 67 73 75 77 80 80 80 79 78 76 74 71
154 159 149 144 99 99 110 106 115 51 111 149 249 180 154 163 164 170 172 180 174 173 192 181 187 217 143 161 162 181 177 168 171 169 169 166 163 164 166 174 176 182 189 184 187 194 188 185 185 188 191 186 189 198 197 169 149 145 133 131 139 134 122 103 102 105 102 94 89 92 86 81 86 77 65 55 48 46 44 44 46 51 55 58 62 68 74 77 79 80 81 81 80 79 76 74 71
150 148 127 129 139 134 134 145 134 114 129 126 218 176 171 172 168 179 178 175 179 181 185 181 193 220 158 172 167 184 185 172 175 178 176 173 169 168 169 175 181 184 190 191 190 194 193 189 192 194 196 193 190 195 199 183 160 153 137 136 140 129 116 101 109 114 121 107 94 98 84 97 113 93 63 50 44 42 39 40 46 52 57 61 65 71 75 78 79 79 80 80 79 77 75 73 70
152 136 129 149 165 171 162 152 157 135 120 163 205 176 175 173 168 178 183 174 181 187 182 184 192 188 182 177 187 196 187 178 183 183 181 182 177 173 175 177 182 186 189 193 192 195 196 194 196 196 197 199 198 196 194 190 175 163 142 137 143 135 124 120 126 126 138 129 111 100 76 78 92 87 58 40 35 34 34 37 47 55 60 65 69 72 75 77 77 75 75 75 75 74 73 71 68
183 130 167 183 170 188 142 143 158 144 145 184 170 173 180 173 177 185 186 178 176 186 186 191 195 180 184 172 201 201 190 188 188 187 187 188 185 180 182 180 182 187 189 190 192 196 198 196 199 197 195 197 194 195 195 196 186 175 163 150 162 158 153 165 155 145 148 152 147 124 86 82 68 68 54 23 19 22 26 36 51 60 65 69 72 74 76 76 73 71 70 70 70 70 69 67 65
188 154 200 168 73 29 130 138 146 147 184 185 154 169 177 174 198 194 178 175 176 185 192 196 202 196 188 150 202 204 199 195 191 191 191 192 193 191 187 182 186 190 190 191 194 197 200 199 202 202 200 199 192 195 199 198 198 193 182 174 186 181 174 180 180 171 162 171 172 160 127 87 129 227 21 329 355 8 8 31 60 68 71 73 76 77 78 77 73 69 67 66 66 65 64 62 61
150 134 195 135 80 118 141 114 151 192 188 157 136 166 174 180 213 199 179 184 186 193 195 196 197 197 198 179 194 204 204 196 195 194 192 196 198 201 197 188 188 192 194 195 198 199 204 206 205 205 207 209 203 203 205 203 205 203 196 192 195 193 188 187 188 188 187 188 186 185 210 209 199 224 250 279 330 359 1 37 81 78 75 75 77 80 80 78 73 69 66 64 63 60 58 55 54
143 117 68 121 132 160 181 128 162 208 179 145 155 168 174 193 206 199 208 207 197 203 195 194 197 190 201 191 164 195 205 198 196 197 195 197 199 206 209 199 191 193 198 199 202 204 207 212 209 206 206 210 211 209 210 213 213 207 206 203 196 197 196 198 196 194 201 201 195 199 215 232 219 220 251 280 321 345 358 47 91 90 81 75 74 77 80 77 72 68 65 62 59 55 51 47 45
138 115 85 139 157 189 192 180 159 208 165 142 160 165 172 200 201 199 218 218 203 210 204 195 202 206 218 197 164 182 204 202 199 199 198 199 201 205 210 210 199 194 202 201 203 207 211 215 214 211 206 203 209 212 212 218 218 211 214 210 201 201 203 206 206 202 209 216 212 206 211 232 229 233 259 291 313 327 352 43 78 91 92 81 74 76 77 75 71 66 62 59 54 48 43 40 39
134 127 175 163 178 201 181 175 169 180 144 142 160 171 177 182 194 201 211 210 207 214 212 211 211 218 225 210 207 197 203 208 206 203 201 201 203 204 206 213 210 204 210 207 202 205 212 217 218 218 214 209 214 217 215 217 218 215 216 215 207 205 212 213 212 214 216 220 223 216 211 214 227 246 263 293 304 315 340 43 75 90 106 99 85 83 79 76 73 66 61 55 49 45 39 35 35
135 155 202 190 180 181 179 179 169 110 152 161 171 183 189 173 180 189 195 204 215 225 221 224 225 225 230 228 227 225 218 215 213 211 206 203 205 208 208 212 213 209 214 220 208 200 205 213 216 220 221 221 224 223 218 216 218 218 216 220 220 215 218 217 214 219 219 216 220 219 211 208 226 249 250 262 286 295 306 46 92 107 117 113 99 96 86 78 72 64 58 50 48 47 40 36 34
94 122 216 204 170 141 166 172 157 60 152 157 171 186 195 189 172 180 196 197 205 224 226 227 232 233 233 234 234 237 237 229 220 219 216 211 210 211 214 218 219 212 212 224 220 205 205 208 213 221 221 223 230 230 225 220 219 220 218 221 224 221 221 221 216 216 218 215 214 213 211 213 225 244 251 254 270 283 287 291 105 119 119 113 99 97 90 78 63 59 54 46 48 47 39 35 32
66 190 222 177 131 75 158 169 147 77 124 151 167 182 193 197 175 183 205 193 198 224 225 220 230 236 238 237 237 238 239 238 229 224 222 220 217 215 218 222 226 225 219 224 226 217 212 210 212 220 221 221 229 235 231 220 218 222 221 223 226 228 229 226 221 215 218 218 213 212 215 220 223 233 250 258 263 272 275 270 180 131 125 121 111 93 85 82 66 57 55 46 46 43 34 31 29
96 215 281 75 114 104 146 173 161 98 124 157 162 172 188 192 186 188 195 204 216 229 230 228 234 238 243 244 242 242 241 241 236 229 226 224 224 223 225 227 229 233 230 229 231 225 219 214 212 217 219 217 223 232 228 219 219 222 223 227 229 232 233 230 225 220 220 221 219 217 218 225 227 234 246 251 252 257 257 251 228 178 143 159 170 111 70 105 86 48 48 41 38 38 29 26 29
104 30 15 73 124 89 133 176 190 173 143 158 160 168 187 184 195 202 200 221 230 229 234 237 242 243 246 246 243 243 242 241 238 234 231 228 229 229 231 234 235 238 238 236 236 233 229 224 220 219 219 217 221 224 221 219 218 221 227 228 226 229 233 233 231 228 227 225 225 226 227 229 230 236 241 241 245 249 250 244 237 232 207 196 194 165 175 143 104 46 40 32 30 32 22 22 32
117 69 95 118 79 69 139 176 190 175 156 162 170 180 186 180 210 219 214 230 240 243 246 242 243 242 243 243 241 241 240 241 239 238 237 234 233 232 233 237 242 244 245 246 243 239 234 233 232 229 226 223 222 220 217 218 214 217 226 224 222 225 230 239 239 236 234 229 231 232 231 233 233 234 235 241 248 250 249 246 246 247 244 227 212 197 189 162 115 54 38 25 23 24 16 18 32
128 119 148 143 74 70 141 164 174 168 173 175 178 186 186 191 223 234 228 237 243 250 255 250 246 241 239 240 241 243 243 242 240 238 237 236 235 234 235 236 241 245 247 249 248 245 238 235 234 231 229 226 223 220 218 220 215 214 215 212 216 222 230 242 239 232 233 235 238 235 232 234 235 231 229 242 253 249 246 247 248 246 246 240 221 205 192 176 143 60 36 18 17 12 4 11 31
60 123 154 140 82 92 131 139 157 156 171 176 182 192 191 211 241 261 248 248 250 252 255 253 250 247 244 243 243 244 244 241 238 235 233 234 233 233 235 237 241 245 248 250 249 246 239 232 227 223 222 223 223 220 219 220 219 216 210 198 204 220 231 238 233 228 233 242 239 232 231 233 234 231 226 239 251 246 245 244 245 243 240 238 225 205 190 187 187 47 5 4 16 4 353 6 38
66 119 141 134 90 102 128 135 149 152 163 177 202 208 209 231 260 268 257 257 258 254 253 253 252 251 250 249 248 246 244 242 239 235 232 231 232 233 235 238 242 247 251 253 249 243 235 228 225 222 219 219 220 221 220 221 220 217 213 208 208 220 228 233 234 226 226 235 232 230 233 241 245 236 222 232 249 248 248 240 238 241 236 232 226 210 195 196 197 210 320 343 11 358 353 23 59
105 117 122 110 85 100 130 144 150 179 200 218 234 232 243 232 249 261 252 252 255 251 250 250 250 250 251 250 248 246 243 240 237 234 231 229 229 232 234 240 247 251 252 250 244 237 231 226 224 224 221 216 216 219 222 222 221 218 217 217 219 226 231 236 234 221 220 226 226 232 240 249 250 233 217 232 250 246 243 236 232 236 231 224 219 211 209 215 208 224 289 317 346 348 8 61 77
109 129 135 103 80 112 127 147 164 204 221 228 251 266 234 161 221 245 242 247 253 251 248 247 247 247 248 248 245 244 243 238 234 231 229 229 229 231 237 245 251 253 249 242 236 231 227 225 224 225 223 218 214 216 221 224 224 222 221 222 224 230 233 233 226 219 226 221 216 229 239 246 240 221 213 230 252 245 237 234 233 229 223 218 213 212 219 226 228 254 289 314 321 326 30 77 91
102 119 161 128 112 164 125 146 193 209 232 205 248 273 229 193 226 242 245 252 254 252 251 249 247 247 246 245 243 242 242 238 234 230 229 229 228 231 239 247 250 248 243 236 229 225 224 223 221 222 223 221 218 215 217 222 224 224 224 223 224 226 223 223 219 221 231 218 216 229 231 236 232 226 230 237 254 247 228 230 233 228 225 222 218 219 219 216 229 271 306 296 269 277 60 88 104
108 72 323 223 238 226 117 97 197 200 220 147 158 278 241 196 224 239 247 254 255 253 253 253 251 251 248 244 242 241 241 239 237 235 232 229 228 232 239 244 244 241 236 230 225 221 220 220 221 222 222 222 223 221 218 219 221 223 221 211 210 211 212 216 216 219 224 219 227 231 223 227 231 233 239 242 246 232 207 211 219 223 228 226 220 216 214 217 242 284 284 222 215 225 112 110 117
84 21 283 178 255 188 115 111 180 197 190 152 172 267 265 209 221 231 246 254 257 255 253 255 256 254 251 246 244 243 242 242 241 238 234 231 232 235 239 240 236 233 230 225 221 220 219 220 223 224 224 224 224 224 224 221 219 221 215 202 201 201 202 209 214 215 215 222 236 230 220 222 222 223 229 236 240 225 202 200 196 206 222 229 225 211 212 244 257 237 195 189 213 217 144 126 127
32 248 184 107 252 207 107 141 190 226 145 163 189 256 267 269 259 235 250 254 252 255 255 257 258 256 252 249 248 247 246 245 244 240 236 235 236 238 239 238 231 228 226 223 221 221 222 223 224 226 227 226 226 225 225 222 217 218 213 208 207 203 203 213 222 223 221 231 233 216 209 211 208 213 216 221 232 228 210 196 185 209 232 236 228 211 215 247 234 195 182 186 216 185 150 139 137
67 268 221 143 227 274 0 116 118 317 106 192 219 268 275 275 265 209 224 262 255 258 263 263 262 259 253 250 249 249 248 247 245 241 238 238 239 240 240 237 231 226 224 223 223 223 224 224 224 226 227 227 227 225 223 219 215 213 205 206 211 207 211 222 228 234 234 231 220 196 195 200 201 208 205 210 224 225 221 213 204 219 229 225 219 212 214 219 200 189 190 186 172 158 154 150 144
157 231 239 193 231 268 271 120 102 139 212 224 225 248 263 268 270 238 244 278 277 265 268 271 269 265 258 253 251 249 249 248 245 241 240 240 240 241 240 237 231 227 225 225 225 225 225 225 226 227 228 228 227 224 222 218 213 211 199 198 207 206 208 216 222 231 230 222 218 206 203 209 210 208 207 217 227 225 225 229 229 226 221 216 214 213 209 195 181 185 201 183 157 155 161 154 146
168 187 201 221 219 236 270 269 116 154 229 236 226 237 256 265 270 265 264 270 269 265 268 271 270 268 263 258 254 252 251 248 244 242 242 242 242 242 241 239 233 229 227 226 226 227 226 226 226 227 229 229 225 223 223 217 210 208 201 199 203 201 205 214 217 219 218 217 222 221 219 221 218 212 217 236 241 230 225 227 231 229 219 211 209 208 198 186 181 180 193 182 158 157 163 155 148
131 154 194 213 232 245 256 269 84 160 247 245 241 247 257 262 266 269 268 264 262 263 266 268 268 266 262 259 257 255 253 250 246 244 244 243 244 243 242 241 236 232 230 228 228 228 228 227 227 228 229 227 223 222 223 218 209 206 201 199 201 201 210 216 209 209 215 220 220 216 214 214 215 221 233 250 246 228 223 225 224 219 212 207 207 203 190 184 186 179 179 179 161 156 160 157 152
110 121 182 196 254 265 255 179 80 108 264 254 245 253 260 263 267 270 269 264 259 258 257 260 263 263 261 260 260 257 254 253 250 247 245 244 244 243 242 241 238 235 232 230 229 229 229 227 228 229 227 224 223 223 223 219 212 207 201 199 203 209 213 209 205 210 215 214 208 201 200 203 211 227 242 250 240 221 218 214 204 200 198 198 196 189 183 182 186 181 173 174 168 160 159 161 159
122 162 204 208 231 262 268 304 72 120 253 264 261 266 262 257 262 267 268 261 250 249 248 253 258 259 261 261 261 259 257 256 254 251 248 245 244 242 241 240 237 236 234 232 231 230 229 227 228 229 227 223 223 223 221 218 211 207 204 202 206 211 210 207 209 209 206 202 197 195 198 202 211 231 244 243 226 208 201 192 186 186 183 179 177 176 182 185 182 177 172 171 171 171 169 168 167
148 168 206 237 226 269 273 278 46 161 233 276 288 281 272 261 260 261 258 253 249 249 249 253 257 257 259 260 261 260 260 260 258 254 251 247 245 242 240 239 237 235 234 234 234 232 229 227 227 228 226 222 223 221 217 212 204 201 203 203 206 210 209 210 210 206 202 198 195 198 202 207 219 232 234 222 201 185 182 180 178 177 174 172 173 177 183 186 181 175 174 175 170 173 180 179 177
193 186 206 233 146 267 263 71 63 173 225 299 303 287 277 259 252 252 250 249 251 255 255 257 257 256 257 258 259 260 260 261 260 258 255 250 245 242 241 240 238 235 234 233 234 232 229 227 227 227 225 223 222 220 214 207 200 197 200 201 207 212 211 208 203 201 203 201 197 202 208 212 221 225 213 197 183 176 174 174 171 170 172 176 177 179 181 181 177 173 176 180 176 175 184 185 183
211 208 218 230 209 228 244 350 332 240 195 313 306 290 273 239 237 243 246 247 255 258 258 258 256 256 257 257 258 258 258 259 259 259 258 254 249 245 243 241 239 236 235 234 234 232 229 226 225 224 225 225 223 218 211 204 200 199 201 204 208 209 206 201 197 197 200 200 202 208 214 215 216 213 201 186 175 171 170 171 172 173 176 179 180 180 180 176 173 174 175 178 181 185 192 192 191
221 211 220 235 240 240 242 2 334 278 226 59 334 303 280 177 215 240 234 206 254 254 251 253 255 257 257 258 259 259 258 258 258 259 259 258 254 248 245 242 239 238 236 235 233 232 229 225 222 222 224 224 220 216 208 201 200 200 203 205 201 197 197 198 200 204 205 205 209 213 217 216 208 201 193 181 171 170 173 174 177 181 183 183 181 178 179 176 172 173 174 176 182 185 191 202 203
257 201 220 235 237 246 250 247 274 278 285 264 13 313 293 255 221 232 231 244 258 256 251 254 257 258 258 259 262 263 262 262 261 260 260 259 255 248 244 241 240 239 236 233 231 230 227 223 221 221 222 220 217 214 205 198 198 200 204 205 201 199 201 202 205 208 209 212 215 217 221 214 199 192 188 180 174 176 178 178 181 187 190 187 180 176 178 178 174 174 175 176 181 182 184 197 204
272 78 170 192 184 205 218 209 234 278 325 286 156 227 283 277 240 223 221 234 257 259 261 264 262 261 262 264 266 266 267 267 266 264 261 259 256 250 245 242 240 238 235 232 229 228 225 222 221 220 218 217 214 210 202 196 198 199 202 205 205 206 208 209 208 204 206 211 213 217 222 209 193 189 188 183 180 181 179 179 185 189 188 184 178 176 179 180 178 178 179 180 182 184 185 190 198
0 98 110 125 139 156 150 180 229 302 323 276 160 144 270 276 197 133 211 220 239 251 256 265 266 267 269 271 272 273 272 270 266 263 261 260 257 252 246 241 239 236 234 232 228 225 224 221 220 218 215 214 212 206 199 196 198 200 201 203 204 205 206 209 208 205 206 210 215 220 214 200 191 190 190 186 183 184 182 183 187 184 181 180 178 177 180 182 182 182 184 186 186 188 189 191 197
137 142 104 94 90 85 104 207 164 126 277 255 167 160 248 277 175 131 171 206 221 238 245 257 267 273 277 277 277 278 274 267 263 261 260 259 255 250 243 237 236 234 233 232 226 222 223 220 218 217 213 213 211 202 197 197 199 202 201 201 205 207 205 204 203 206 210 215 222 214 199 194 193 192 191 189 186 186 185 185 184 181 179 180 179 180 181 184 186 186 189 192 191 193 195 197 202
142 147 110 98 92 79 92 58 69 260 262 253 170 179 219 272 167 146 161 190 217 228 237 252 266 272 276 279 279 274 266 261 260 259 258 255 249 241 235 233 233 231 231 231 222 219 222 219 216 215 211 212 208 199 196 197 198 201 201 202 206 206 203 202 203 207 212 218 218 202 193 194 193 191 191 190 188 188 186 184 182 181 181 182 182 183 185 187 189 191 193 195 196 198 200 203 208
149 155 137 133 136 128 183 168 151 247 252 296 92 194 227 245 229 159 176 238 239 232 239 249 263 269 271 276 277 267 257 253 256 259 259 255 247 237 227 227 229 228 230 228 219 217 220 216 213 213 211 210 205 198 195 194 195 199 200 198 199 200 201 204 207 211 216 220 211 196 193 194 192 192 193 192 190 188 186 184 183 184 184 185 187 187 188 190 192 195 198 200 201 203 204 206 212
224 164 157 190 224 213 238 207 181 243 252 19 46 335 249 247 247 242 247 252 237 224 237 250 260 265 268 272 273 264 252 250 258 266 269 262 251 240 227 223 223 224 227 226 218 216 217 214 212 212 211 209 203 197 195 194 195 197 197 195 196 200 205 210 216 220 223 223 209 195 194 196 195 196 196 195 191 188 186 185 185 187 188 189 190 190 191 192 195 200 202 204 205 207 209 208 213
198 178 170 197 206 219 239 214 236 264 270 44 87 209 257 265 257 231 233 240 236 227 238 251 258 262 267 270 269 263 256 259 266 269 273 268 257 246 232 225 222 222 226 225 218 216 215 213 213 212 211 210 203 197 195 196 197 196 197 199 203 208 212 217 222 223 223 219 205 196 197 200 201 202 200 197 192 188 187 188 189 190 191 192 193 193 194 195 198 203 205 207 208 209 211 211 215
196 186 189 214 195 209 238 225 250 278 308 180 159 212 245 265 8 216 229 249 249 242 240 247 256 258 262 267 269 269 267 266 266 263 267 268 261 250 236 228 224 222 225 224 217 214 214 214 214 213 212 209 202 197 196 196 196 196 199 204 207 211 214 216 218 214 213 211 202 197 201 204 207 208 205 199 193 190 190 191 192 194 195 196 196 196 197 198 201 205 206 208 209 210 211 212 217
199 92 246 240 208 202 267 294 287 335 317 254 191 231 253 267 288 241 239 260 250 245 240 244 251 252 256 266 271 274 273 269 265 261 260 262 261 254 239 229 226 224 225 224 219 214 214 215 216 214 213 209 202 199 199 198 199 202 205 207 208 210 211 211 209 204 206 206 202 201 206 208 210 210 206 200 196 194 194 195 195 197 198 198 198 199 199 201 204 207 208 209 209 210 210 212 218
158 166 203 216 0 249 228 251 71 78 272 257 192 250 278 295 274 234 216 237 240 238 239 239 245 250 257 267 268 270 273 273 270 265 262 260 259 255 243 231 227 227 226 224 219 215 215 217 217 214 212 207 201 201 201 201 204 208 209 208 207 210 210 210 207 202 203 203 202 206 209 210 210 208 205 202 199 198 198 199 200 201 201 200 200 201 202 204 208 210 210 211 210 210 210 212 217
132 187 186 132 43 315 232 245 228 173 257 265 203 256 277 269 267 196 152 221 241 232 232 237 245 253 261 265 267 269 271 272 271 267 262 257 253 248 242 234 229 229 228 224 218 215 215 218 218 216 213 207 202 202 201 202 204 206 208 207 207 211 211 210 207 204 204 204 205 207 209 209 208 206 205 204 203 203 202 203 205 206 205 203 203 204 205 207 210 211 211 211 210 210 210 213 218
45 180 163 142 221 207 174 222 245 218 253 270 226 260 269 239 229 190 147 184 221 224 222 230 244 249 253 264 273 275 272 271 270 266 260 253 247 242 238 233 230 229 227 222 218 216 216 218 218 217 215 209 204 204 203 203 204 206 209 210 210 212 213 211 208 206 207 208 209 209 208 207 205 204 205 206 206 207 207 207 208 209 208 207 206 207 208 210 212 213 213 211 210 209 209 213 218
16 108 171 212 289 222 172 180 243 233 246 280 285 276 264 236 188 184 194 197 213 225 224 221 236 243 248 265 278 279 277 277 274 268 262 255 248 242 237 232 230 227 224 220 217 217 217 218 219 218 214 208 205 206 205 205 205 208 213 213 212 213 215 212 209 209 212 213 212 210 208 205 204 204 206 208 209 211 211 212 212 211 211 210 210 210 211 213 214 214 215 214 211 209 209 214 219
176 189 186 184 174 306 255 199 205 258 249 270 279 273 268 233 124 171 193 198 210 216 223 222 231 249 256 267 277 281 285 283 276 269 262 255 248 243 237 232 229 227 223 219 217 217 218 219 220 218 213 208 206 207 207 207 207 210 214 214 213 214 215 214 211 212 216 217 214 211 207 204 204 205 208 210 212 213 214 215 215 215 214 213 214 214 214 215 216 217 217 214 211 210 210 214 222
185 195 189 187 173 154 201 207 180 222 245 236 240 273 276 257 117 178 183 192 209 194 204 224 219 247 266 275 278 284 284 275 271 267 259 249 243 240 236 232 228 225 223 219 216 216 218 219 220 219 215 210 208 208 207 207 209 212 215 215 214 215 216 216 215 216 219 219 217 212 207 204 205 207 210 212 214 215 216 217 218 218 217 217 217 218 218 219 220 221 220 217 213 211 212 217 226